Hauptseite
METAR-TAF:

METAR-TAF

Flughäfen :

Passo Rolle, Italien

Breite: 46-18N, Länge: 011-47E, Höhe: 2004 m

Beobachtung

Neuester Wetterbericht von vor 1 Stunde und 57 Minuten, um 23:55 UTC
Wind 8 kt aus Südost
Temperatur 8°C
Luftfeuchtigkeit 93%
Luftdruck 1026 hPa
Sichtweite: 0050 m
Nebel

METAR: LIVR 252355Z 13008KT 0050 FG VV/// 08/07 Q1026 RMK MON INVIS VIS MIN 0050

Zeit: 03:52 (01:52 UTC)


TAF: fehlend

Wetterbeobachtungen und Prognosen von mehr als 4000 Flughäfen (METAR und TAF Bericht).

Die verfügbaren Stationen werden durch gelbe und rote Markierungen auf der Karte dargestellt.

Führen Sie die Maus auf sie, um den Namen der Station zu sehen.

Darauf klicken, um die Beobachtung von Wetterbeobachtungen und Prognosen zu sehen.

Um die Karte zu ändern : klicken Sie auf den grünen Tasten mit einem schwarzen Kreuz Zum Vergrößern, auf den grünen Button mit einem Gedankenstrich zu verkleinern, oder auf die grünen Pfeile für benachbarte Karten.


METAR-TAF: